TAR700 DTTA-LSGG

Flight info

Callsign TAR700
Flight time 1h 33m
Altitude 36000
Route TOBIB2A TOBIB UA725 OSMAR DCT PIRIX DCT CAR DCT GIGGI DCT INDUM DCT UPDUT DCT CORSI DCT OMEDA DCT MERLU DCT PIGOS/N0422F300 DCT BARSO/N0399F280 DCT IRMAR DCT KINES
Aircraft A320/M-SDE3FGHIRWY/LB1

Departure

Time 2026-05-07 13:42
Airport Tunis Carthage International Airport (DTTA)

Arrival

Time 2026-05-07 15:16
Airport Geneva International Airport (LSGG)
Time Latitude Longitude Altitude Speed Heading
2026-05-07 13:25 36.84661 10.21959 31 ft 0 kts 198°
2026-05-07 13:34 36.84685 10.21968 30 ft 4 kts 195°
2026-05-07 13:35 36.84710 10.21978 30 ft 4 kts 206°
2026-05-07 13:35 36.84726 10.21995 30 ft 3 kts 269°
2026-05-07 13:35 36.84725 10.22027 30 ft 4 kts 278°
2026-05-07 13:35 36.84720 10.22060 30 ft 4 kts 289°
2026-05-07 13:36 36.84708 10.22090 30 ft 4 kts 308°
2026-05-07 13:36 36.84689 10.22109 30 ft 4 kts 352°
2026-05-07 13:36 36.84665 10.22108 30 ft 4 kts
2026-05-07 13:36 36.84638 10.22102 30 ft 4 kts 10°
2026-05-07 13:37 36.84612 10.22096 30 ft 4 kts 11°
2026-05-07 13:37 36.84586 10.22089 30 ft 4 kts 12°
2026-05-07 13:37 36.84564 10.22084 30 ft 4 kts 11°
2026-05-07 13:37 36.84537 10.22077 30 ft 4 kts 10°
2026-05-07 13:38 36.84511 10.22071 30 ft 4 kts 14°
2026-05-07 13:38 36.84487 10.22060 30 ft 3 kts 36°
2026-05-07 13:38 36.84484 10.22058 30 ft 0 kts 36°
2026-05-07 13:39 36.84498 10.22083 30 ft 10 kts 64°
2026-05-07 13:39 36.84496 10.22180 30 ft 12 kts 102°
2026-05-07 13:39 36.84434 10.22239 30 ft 18 kts 184°
2026-05-07 13:40 36.84292 10.22206 30 ft 20 kts 191°
2026-05-07 13:40 36.84162 10.22168 30 ft 18 kts 194°
2026-05-07 13:40 36.84047 10.22132 30 ft 16 kts 192°
2026-05-07 13:40 36.83943 10.22106 30 ft 14 kts 189°
2026-05-07 13:41 36.83865 10.22135 30 ft 12 kts 108°
2026-05-07 13:41 36.83875 10.22227 31 ft 11 kts 70°
2026-05-07 13:41 36.83937 10.22356 31 ft 25 kts 50°
2026-05-07 13:41 36.84242 10.22462 31 ft 78 kts 13°
2026-05-07 13:42 36.84969 10.22658 33 ft 133 kts 11°
2026-05-07 13:42 36.85993 10.22901 314 ft 149 kts
2026-05-07 13:42 36.86948 10.23085 1055 ft 137 kts
2026-05-07 13:42 36.87929 10.22822 1418 ft 150 kts 346°
2026-05-07 13:43 36.88932 10.22406 1815 ft 153 kts 345°
2026-05-07 13:43 36.89995 10.22008 2027 ft 170 kts 347°
2026-05-07 13:43 36.91229 10.21581 2064 ft 202 kts 348°
2026-05-07 13:43 36.92669 10.21101 2258 ft 225 kts 348°
2026-05-07 13:44 36.94251 10.20582 2521 ft 250 kts 347°
2026-05-07 13:44 36.95992 10.20015 3095 ft 263 kts 348°
2026-05-07 13:44 36.97777 10.19434 3895 ft 267 kts 348°
2026-05-07 13:44 36.99598 10.18847 4698 ft 273 kts 348°
2026-05-07 13:45 37.01447 10.18260 5496 ft 276 kts 347°
2026-05-07 13:45 37.03313 10.17671 6340 ft 278 kts 343°
2026-05-07 13:45 37.05196 10.17074 7073 ft 281 kts 344°
2026-05-07 13:45 37.07109 10.16465 7820 ft 285 kts 343°
2026-05-07 13:46 37.09043 10.15847 8573 ft 288 kts 342°
2026-05-07 13:46 37.10996 10.15225 9335 ft 291 kts 341°
2026-05-07 13:46 37.12971 10.14596 10047 ft 296 kts 341°
2026-05-07 13:46 37.15039 10.13931 10267 ft 319 kts 341°
2026-05-07 13:47 37.17255 10.13214 10514 ft 337 kts 341°
2026-05-07 13:47 37.19554 10.12478 11073 ft 344 kts 341°
2026-05-07 13:47 37.21895 10.11733 11715 ft 348 kts 341°
2026-05-07 13:47 37.24259 10.10984 12369 ft 352 kts 341°
2026-05-07 13:48 37.26655 10.10225 13018 ft 356 kts 340°
2026-05-07 13:48 37.29070 10.09462 13669 ft 360 kts 341°
2026-05-07 13:48 37.31507 10.08691 14266 ft 363 kts 341°
2026-05-07 13:48 37.33934 10.07921 14830 ft 366 kts 341°
2026-05-07 13:49 37.36407 10.07134 15392 ft 369 kts 341°
2026-05-07 13:49 37.38913 10.06336 15942 ft 373 kts 341°
2026-05-07 13:49 37.41438 10.05531 16503 ft 376 kts 341°
2026-05-07 13:49 37.43990 10.04723 17042 ft 380 kts 341°
2026-05-07 13:50 37.46567 10.03909 17587 ft 383 kts 341°
2026-05-07 13:50 37.49166 10.03086 18131 ft 386 kts 341°
2026-05-07 13:50 37.51791 10.02255 18598 ft 390 kts 341°
2026-05-07 13:50 37.54434 10.01418 19081 ft 393 kts 341°
2026-05-07 13:51 37.57097 10.00572 19561 ft 396 kts 340°
2026-05-07 13:51 37.59781 9.99721 20047 ft 399 kts 340°
2026-05-07 13:51 37.62481 9.98865 20531 ft 401 kts 340°
2026-05-07 13:51 37.65175 9.98014 21007 ft 404 kts 340°
2026-05-07 13:52 37.67912 9.97147 21492 ft 407 kts 339°
2026-05-07 13:52 37.70665 9.96270 21968 ft 410 kts 339°
2026-05-07 13:52 37.73445 9.95384 22430 ft 412 kts 339°
2026-05-07 13:52 37.76241 9.94491 22880 ft 415 kts 339°
2026-05-07 13:53 37.79021 9.93602 23348 ft 418 kts 338°
2026-05-07 13:53 37.81852 9.92697 23733 ft 420 kts 338°
2026-05-07 13:53 37.84695 9.91790 24088 ft 423 kts 338°
2026-05-07 13:53 37.87558 9.90881 24443 ft 425 kts 338°
2026-05-07 13:54 37.90445 9.89961 24798 ft 428 kts 338°
2026-05-07 13:54 37.93334 9.89037 25117 ft 430 kts 338°
2026-05-07 13:54 37.96249 9.88105 25448 ft 432 kts 337°
2026-05-07 13:54 37.99173 9.87169 25770 ft 434 kts 337°
2026-05-07 13:55 38.02118 9.86226 26089 ft 436 kts 337°
2026-05-07 13:55 38.05066 9.85280 26396 ft 439 kts 337°
2026-05-07 13:55 38.08036 9.84325 26714 ft 441 kts 337°
2026-05-07 13:55 38.11016 9.83366 27024 ft 443 kts 336°
2026-05-07 13:56 38.14015 9.82400 27332 ft 445 kts 336°
2026-05-07 13:56 38.17017 9.81432 27635 ft 447 kts 336°
2026-05-07 13:56 38.20049 9.80454 27933 ft 449 kts 336°
2026-05-07 13:56 38.23089 9.79477 28221 ft 451 kts 336°
2026-05-07 13:57 38.26136 9.78499 28552 ft 453 kts 336°
2026-05-07 13:57 38.29196 9.77520 28874 ft 453 kts 336°
2026-05-07 13:57 38.32221 9.76553 29157 ft 455 kts 336°
2026-05-07 13:57 38.35297 9.75570 29434 ft 456 kts 336°
2026-05-07 13:58 38.38386 9.74581 29697 ft 458 kts 336°
2026-05-07 13:58 38.41482 9.73588 29950 ft 459 kts 336°
2026-05-07 13:58 38.44588 9.72588 30159 ft 461 kts 335°
2026-05-07 13:58 38.47712 9.71579 30346 ft 463 kts 335°
2026-05-07 13:59 38.50837 9.70571 30575 ft 464 kts 336°
2026-05-07 13:59 38.53963 9.69566 30839 ft 463 kts 336°
2026-05-07 13:59 38.57094 9.68560 31095 ft 463 kts 335°
2026-05-07 13:59 38.60227 9.67547 31333 ft 463 kts 335°
2026-05-07 14:00 38.63355 9.66532 31559 ft 464 kts 334°
2026-05-07 14:00 38.66459 9.65523 31773 ft 465 kts 334°
2026-05-07 14:00 38.69593 9.64509 32013 ft 465 kts 334°
2026-05-07 14:00 38.72738 9.63493 32258 ft 466 kts 334°
2026-05-07 14:01 38.75879 9.62476 32518 ft 465 kts 334°
2026-05-07 14:01 38.79015 9.61459 32769 ft 465 kts 333°
2026-05-07 14:01 38.82160 9.60436 33021 ft 465 kts 333°
2026-05-07 14:01 38.85299 9.59412 33247 ft 466 kts 333°
2026-05-07 14:02 38.88442 9.58384 33485 ft 466 kts 332°
2026-05-07 14:02 38.91587 9.57354 33721 ft 466 kts 332°
2026-05-07 14:02 38.94729 9.56316 33952 ft 466 kts 331°
2026-05-07 14:02 38.97865 9.55269 34219 ft 465 kts 331°
2026-05-07 14:03 39.00991 9.54221 34499 ft 463 kts 330°
2026-05-07 14:03 39.04108 9.53171 34726 ft 462 kts 330°
2026-05-07 14:03 39.07208 9.52124 34952 ft 460 kts 330°
2026-05-07 14:03 39.10301 9.51080 35166 ft 460 kts 330°
2026-05-07 14:04 39.13366 9.50070 35370 ft 461 kts 331°
2026-05-07 14:04 39.16485 9.49110 35572 ft 461 kts 332°
2026-05-07 14:04 39.19622 9.48196 35772 ft 461 kts 332°
2026-05-07 14:04 39.22755 9.47308 35918 ft 460 kts 332°
2026-05-07 14:05 39.25862 9.46432 35954 ft 456 kts 332°
2026-05-07 14:05 39.32040 9.44628 35957 ft 456 kts 332°
2026-05-07 14:06 39.38229 9.42768 35983 ft 458 kts 332°
2026-05-07 14:06 39.44435 9.40914 36010 ft 456 kts 332°
2026-05-07 14:07 39.50608 9.39068 36024 ft 456 kts 332°
2026-05-07 14:07 39.56804 9.37205 35956 ft 456 kts 332°
2026-05-07 14:08 39.62990 9.35344 35957 ft 456 kts 332°
2026-05-07 14:08 39.69134 9.33500 35995 ft 455 kts 333°
2026-05-07 14:09 39.75304 9.31645 35991 ft 455 kts 333°
2026-05-07 14:09 39.81470 9.29792 35980 ft 455 kts 333°
2026-05-07 14:10 39.87633 9.27931 35983 ft 454 kts 333°
2026-05-07 14:10 39.93789 9.26064 35995 ft 453 kts 333°
2026-05-07 14:11 39.99924 9.24199 35986 ft 453 kts 333°
2026-05-07 14:11 40.06072 9.22326 35978 ft 453 kts 333°
2026-05-07 14:12 40.11184 9.20776 36001 ft 452 kts 334°
2026-05-07 14:12 40.18320 9.18604 35987 ft 453 kts 334°
2026-05-07 14:13 40.23426 9.17040 35984 ft 453 kts 334°
2026-05-07 14:13 40.29492 9.14968 35980 ft 446 kts 330°
2026-05-07 14:14 40.35347 9.12417 35976 ft 442 kts 327°
2026-05-07 14:14 40.41154 9.09754 35976 ft 442 kts 328°
2026-05-07 14:15 40.46998 9.07186 35962 ft 444 kts 329°
2026-05-07 14:15 40.52902 9.04672 35953 ft 446 kts 329°
2026-05-07 14:16 40.58800 9.02155 35968 ft 446 kts 329°
2026-05-07 14:16 40.64702 8.99602 35964 ft 446 kts 329°
2026-05-07 14:17 40.70597 8.97048 35967 ft 446 kts 329°
2026-05-07 14:17 40.76454 8.94506 35966 ft 446 kts 329°
2026-05-07 14:18 40.82357 8.91940 35976 ft 446 kts 330°
2026-05-07 14:18 40.88250 8.89371 35959 ft 446 kts 330°
2026-05-07 14:19 40.94145 8.86801 35966 ft 446 kts 330°
2026-05-07 14:19 41.00338 8.85118 35966 ft 469 kts 347°
2026-05-07 14:20 41.06909 8.85018 35979 ft 472 kts 350°
2026-05-07 14:20 41.13480 8.84951 35974 ft 472 kts 350°
2026-05-07 14:21 41.20046 8.84872 35981 ft 472 kts 350°
2026-05-07 14:21 41.26472 8.84095 36004 ft 454 kts 336°
2026-05-07 14:22 41.32403 8.81628 35994 ft 445 kts 331°
2026-05-07 14:22 41.38275 8.79042 35991 ft 444 kts 331°
2026-05-07 14:23 41.44129 8.76422 35994 ft 444 kts 331°
2026-05-07 14:23 41.49988 8.73801 36003 ft 444 kts 331°
2026-05-07 14:24 41.55846 8.71173 36022 ft 444 kts 332°
2026-05-07 14:24 41.61703 8.68543 35996 ft 444 kts 332°
2026-05-07 14:25 41.67568 8.65904 36016 ft 445 kts 332°
2026-05-07 14:25 41.73432 8.63263 36009 ft 444 kts 332°
2026-05-07 14:26 41.79255 8.60634 36000 ft 444 kts 332°
2026-05-07 14:26 41.85113 8.57998 35995 ft 444 kts 332°
2026-05-07 14:27 41.90964 8.55354 36009 ft 443 kts 332°
2026-05-07 14:27 41.96804 8.52700 36005 ft 443 kts 332°
2026-05-07 14:28 42.02637 8.50040 36002 ft 443 kts 332°
2026-05-07 14:28 42.08478 8.47378 36002 ft 443 kts 332°
2026-05-07 14:29 42.14317 8.44714 36030 ft 443 kts 332°
2026-05-07 14:29 42.20144 8.42045 36021 ft 442 kts 332°
2026-05-07 14:30 42.25968 8.39377 36012 ft 441 kts 332°
2026-05-07 14:30 42.31780 8.36699 36019 ft 439 kts 330°
2026-05-07 14:31 42.37133 8.33038 36023 ft 429 kts 322°
2026-05-07 14:31 42.42319 8.29147 36004 ft 429 kts 322°
2026-05-07 14:32 42.47545 8.25224 36001 ft 430 kts 322°
2026-05-07 14:32 42.52782 8.21297 35997 ft 430 kts 322°
2026-05-07 14:33 42.58021 8.17358 35997 ft 430 kts 322°
2026-05-07 14:33 42.63246 8.13403 35995 ft 430 kts 322°
2026-05-07 14:34 42.68492 8.09438 36000 ft 430 kts 322°
2026-05-07 14:34 42.73736 8.05476 36016 ft 431 kts 322°
2026-05-07 14:35 42.78938 8.01536 36025 ft 431 kts 322°
2026-05-07 14:35 42.84171 7.97552 36024 ft 431 kts 322°
2026-05-07 14:36 42.89407 7.93567 36030 ft 431 kts 322°
2026-05-07 14:36 42.94636 7.89578 36006 ft 431 kts 322°
2026-05-07 14:37 42.99873 7.85579 36019 ft 431 kts 323°
2026-05-07 14:37 43.07715 7.79564 36011 ft 430 kts 323°
2026-05-07 14:38 43.12936 7.75547 36005 ft 430 kts 322°
2026-05-07 14:38 43.18124 7.71539 36030 ft 431 kts 323°
2026-05-07 14:39 43.23342 7.67489 36014 ft 431 kts 323°
2026-05-07 14:39 43.28561 7.63434 36011 ft 431 kts 323°
2026-05-07 14:40 43.33772 7.59384 36010 ft 430 kts 323°
2026-05-07 14:40 43.38985 7.55322 36026 ft 430 kts 323°
2026-05-07 14:41 43.44196 7.51260 36004 ft 431 kts 323°
2026-05-07 14:41 43.49419 7.47179 35996 ft 431 kts 323°
2026-05-07 14:42 43.54639 7.43088 35995 ft 432 kts 323°
2026-05-07 14:42 43.59855 7.38983 36014 ft 432 kts 323°
2026-05-07 14:43 43.65023 7.34766 36007 ft 430 kts 321°
2026-05-07 14:43 43.69963 7.30229 36003 ft 428 kts 319°
2026-05-07 14:44 43.74873 7.25581 36002 ft 428 kts 319°
2026-05-07 14:44 43.79833 7.20975 36004 ft 429 kts 319°
2026-05-07 14:45 43.84814 7.16407 36017 ft 430 kts 320°
2026-05-07 14:45 43.89797 7.11826 36012 ft 429 kts 320°
2026-05-07 14:46 43.94762 7.07236 36009 ft 429 kts 320°
2026-05-07 14:46 43.99734 7.02637 36003 ft 429 kts 320°
2026-05-07 14:47 44.04694 6.98039 36005 ft 429 kts 320°
2026-05-07 14:47 44.09628 6.93452 35987 ft 429 kts 320°
2026-05-07 14:48 44.14942 6.89545 35983 ft 441 kts 335°
2026-05-07 14:48 44.17950 6.88522 35981 ft 449 kts 346°
2026-05-07 14:48 44.21065 6.88034 35983 ft 451 kts 348°
2026-05-07 14:49 44.27303 6.87099 35992 ft 450 kts 348°
2026-05-07 14:49 44.33538 6.86145 35986 ft 451 kts 347°
2026-05-07 14:50 44.39780 6.85192 35981 ft 451 kts 347°
2026-05-07 14:50 44.46013 6.84243 35998 ft 450 kts 348°
2026-05-07 14:51 44.52250 6.83294 35990 ft 451 kts 348°
2026-05-07 14:51 44.58451 6.82345 35975 ft 450 kts 348°
2026-05-07 14:52 44.64689 6.81395 35965 ft 450 kts 348°
2026-05-07 14:52 44.70924 6.80447 35961 ft 451 kts 348°
2026-05-07 14:53 44.77159 6.79478 35959 ft 450 kts 348°
2026-05-07 14:53 44.83409 6.78637 35763 ft 452 kts 351°
2026-05-07 14:54 44.86552 6.78402 35510 ft 453 kts 352°
2026-05-07 14:54 44.89695 6.78250 35267 ft 451 kts 353°
2026-05-07 14:54 44.92816 6.78127 34811 ft 447 kts 352°
2026-05-07 14:54 44.95919 6.77993 34268 ft 444 kts 352°
2026-05-07 14:55 44.98949 6.77835 33702 ft 441 kts 352°
2026-05-07 14:55 45.02009 6.77649 33158 ft 436 kts 351°
2026-05-07 14:55 45.05021 6.77445 32650 ft 432 kts 351°
2026-05-07 14:55 45.08012 6.77230 32130 ft 428 kts 351°
2026-05-07 14:56 45.10976 6.77022 31621 ft 425 kts 351°
2026-05-07 14:56 45.13921 6.76820 31107 ft 423 kts 351°
2026-05-07 14:56 45.16856 6.76621 30606 ft 420 kts 351°
2026-05-07 14:56 45.19771 6.76426 30137 ft 418 kts 352°
2026-05-07 14:57 45.22660 6.76230 29578 ft 415 kts 352°
2026-05-07 14:57 45.25536 6.76035 29119 ft 410 kts 352°
2026-05-07 14:57 45.28361 6.75846 28659 ft 404 kts 352°
2026-05-07 14:57 45.31159 6.75662 28199 ft 399 kts 352°
2026-05-07 14:58 45.33867 6.75341 27750 ft 390 kts 345°
2026-05-07 14:58 45.36518 6.74639 27305 ft 386 kts 344°
2026-05-07 14:58 45.39148 6.73934 26864 ft 383 kts 344°
2026-05-07 14:58 45.41762 6.73237 26401 ft 382 kts 345°
2026-05-07 14:59 45.44371 6.72548 25943 ft 380 kts 345°
2026-05-07 14:59 45.46968 6.71862 25482 ft 379 kts 345°
2026-05-07 14:59 45.49557 6.71177 25009 ft 378 kts 345°
2026-05-07 14:59 45.52142 6.70490 24521 ft 377 kts 345°
2026-05-07 15:00 45.53883 6.70024 24186 ft 377 kts 345°
2026-05-07 15:00 45.56460 6.69334 23693 ft 376 kts 345°
2026-05-07 15:00 45.58997 6.68655 23151 ft 376 kts 346°
2026-05-07 15:00 45.61566 6.67968 22634 ft 375 kts 346°
2026-05-07 15:01 45.64154 6.67279 22132 ft 372 kts 346°
2026-05-07 15:01 45.66665 6.66613 21638 ft 370 kts 346°
2026-05-07 15:01 45.69192 6.65941 21155 ft 368 kts 346°
2026-05-07 15:01 45.71666 6.65284 20671 ft 356 kts 346°
2026-05-07 15:02 45.74066 6.64646 20219 ft 348 kts 346°
2026-05-07 15:02 45.76445 6.64004 19753 ft 348 kts 346°
2026-05-07 15:02 45.78822 6.63356 19302 ft 348 kts 346°
2026-05-07 15:02 45.81202 6.62708 18841 ft 348 kts 346°
2026-05-07 15:03 45.83581 6.62060 18385 ft 348 kts 346°
2026-05-07 15:03 45.85956 6.61414 17891 ft 347 kts 346°
2026-05-07 15:03 45.88328 6.60774 17435 ft 345 kts 346°
2026-05-07 15:03 45.90682 6.60143 16992 ft 344 kts 346°
2026-05-07 15:04 45.93033 6.59513 16547 ft 342 kts 346°
2026-05-07 15:04 45.95347 6.58890 16116 ft 342 kts 346°
2026-05-07 15:04 45.97686 6.58257 15668 ft 342 kts 347°
2026-05-07 15:04 46.00023 6.57624 15240 ft 342 kts 347°
2026-05-07 15:05 46.02362 6.56991 14806 ft 341 kts 347°
2026-05-07 15:05 46.04662 6.56366 14367 ft 332 kts 347°
2026-05-07 15:05 46.06933 6.55747 13948 ft 332 kts 347°
2026-05-07 15:05 46.09204 6.55128 13491 ft 333 kts 347°
2026-05-07 15:06 46.11478 6.54509 13047 ft 332 kts 347°
2026-05-07 15:06 46.13741 6.53893 12622 ft 331 kts 347°
2026-05-07 15:06 46.16005 6.53277 12180 ft 331 kts 347°
2026-05-07 15:06 46.18263 6.52661 11746 ft 330 kts 347°
2026-05-07 15:07 46.20506 6.52048 11325 ft 322 kts 347°
2026-05-07 15:07 46.22643 6.51467 11051 ft 305 kts 347°
2026-05-07 15:07 46.24714 6.50898 10501 ft 302 kts 348°
2026-05-07 15:07 46.26749 6.50336 10041 ft 293 kts 348°
2026-05-07 15:08 46.28729 6.49794 9608 ft 284 kts 348°
2026-05-07 15:08 46.30636 6.49273 9186 ft 273 kts 348°
2026-05-07 15:08 46.32480 6.48770 8807 ft 269 kts 347°
2026-05-07 15:08 46.34323 6.48265 8414 ft 271 kts 347°
2026-05-07 15:09 46.36177 6.47754 8003 ft 271 kts 348°
2026-05-07 15:09 46.38027 6.47243 7695 ft 267 kts 348°
2026-05-07 15:09 46.39803 6.46755 7631 ft 253 kts 348°
2026-05-07 15:09 46.41510 6.46272 7540 ft 249 kts 343°
2026-05-07 15:10 46.42995 6.45108 7433 ft 243 kts 311°
2026-05-07 15:10 46.43780 6.43003 7322 ft 238 kts 279°
2026-05-07 15:10 46.43682 6.40656 6924 ft 240 kts 248°
2026-05-07 15:10 46.42723 6.38693 6525 ft 241 kts 224°
2026-05-07 15:11 46.41522 6.36981 6127 ft 243 kts 225°
2026-05-07 15:11 46.40323 6.35240 5728 ft 245 kts 226°
2026-05-07 15:11 46.39129 6.33493 5334 ft 241 kts 226°
2026-05-07 15:11 46.37972 6.31797 4963 ft 233 kts 226°
2026-05-07 15:12 46.36853 6.30150 4649 ft 225 kts 226°
2026-05-07 15:12 46.35779 6.28560 4438 ft 216 kts 227°
2026-05-07 15:12 46.34752 6.27041 4095 ft 205 kts 227°
2026-05-07 15:12 46.33790 6.25615 3854 ft 191 kts 227°
2026-05-07 15:13 46.32891 6.24282 3602 ft 180 kts 227°
2026-05-07 15:13 46.32044 6.23030 3378 ft 168 kts 227°
2026-05-07 15:13 46.31256 6.21866 3172 ft 158 kts 226°
2026-05-07 15:13 46.30499 6.20750 2960 ft 154 kts 226°
2026-05-07 15:14 46.29750 6.19643 2808 ft 151 kts 226°
2026-05-07 15:14 46.29005 6.18545 2635 ft 156 kts 227°
2026-05-07 15:14 46.28250 6.17433 2359 ft 155 kts 226°
2026-05-07 15:14 46.27491 6.16308 2127 ft 157 kts 225°
2026-05-07 15:15 46.26733 6.15181 1940 ft 157 kts 224°
2026-05-07 15:15 46.25966 6.14073 1729 ft 155 kts 224°
2026-05-07 15:15 46.25220 6.12960 1460 ft 154 kts 224°
2026-05-07 15:15 46.24483 6.11892 1374 ft 139 kts 224°
2026-05-07 15:16 46.23915 6.11059 1378 ft 94 kts 226°
2026-05-07 15:16 46.23601 6.10598 1383 ft 24 kts 228°
2026-05-07 15:16 46.23488 6.10429 1388 ft 22 kts 225°
2026-05-07 15:16 46.23385 6.10283 1402 ft 19 kts 224°
2026-05-07 15:17 46.23299 6.10180 1399 ft 14 kts 213°
2026-05-07 15:17 46.23198 6.10116 1407 ft 18 kts 198°
2026-05-07 15:17 46.23090 6.10121 1402 ft 14 kts 134°
2026-05-07 15:17 46.23071 6.10234 1393 ft 13 kts 90°
2026-05-07 15:18 46.23071 6.10267 1393 ft 0 kts 90°
2026-05-07 15:21 46.23032 6.10570 1404 ft 0 kts 136°